Gadsden, AL

2:41 AM CDT on September 22, 2017 (GMT -0500)
Gadsden Municipal

Weather History for KGAD - February, 2015

Change the Weather History Date:

Monday, February 9, 2015

  Actual Average Record
Temperature  
Mean Temperature 58 °F -  
Max Temperature 64 °F 52 °F 75 °F (1937)
Min Temperature 39 °F 33 °F 7 °F (1933)
Degree Days  
Heating Degree Days 6    
Growing Degree Days 8 (Base 50)    
Moisture  
Dew Point 50 °F    
Average Humidity 77    
Maximum Humidity 94    
Minimum Humidity 52    
Precipitation  
Precipitation 0.08 in - - ()
Sea Level Pressure  
Sea Level Pressure 29.87 in    
Wind  
Wind Speed 7 mph (NW)    
Max Wind Speed 20 mph    
Max Gust Speed 28 mph    
Visibility 9 miles    
Events      
Averages and records for this station are not official NWS values.
T = Trace of Precipitation, MM = Missing Value Source: NWS Daily Summary

Daily Weather History Graph

Daily Weather History Graph

Search for Another Location

Airport or City:

Trip Planner

Search our weather history database for the weather conditions in past years. The results will help you decide how hot, cold, wet, or windy it might be!

Date:

Astronomy

Feb. 09, 2015 Rise Set
Actual Time 6:35 AM CST 5:22 PM CST
Civil Twilight 6:09 AM CST 5:48 PM CST
Nautical Twilight 5:39 AM CST 6:17 PM CST
Astronomical Twilight 5:10 AM CST 6:47 PM CST
Moon 10:39 PM CST (2/9) 9:28 AM CST (2/9)
Length of Visible Light 11h 39m
Length of Day
10h 47m
Waning Gibbous, 73% of the Moon is Illuminated
Feb 9
Waning Gibbous
Feb 11
Last Quarter
Feb 18
New
Feb 25
First Quarter
Mar 5
Full

Hourly Weather History & Observations

Time (CST) Temp. Windchill Dew Point Humidity Pressure Visibility Wind Dir Wind Speed Gust Speed Precip Events Conditions
12:15 AM - - - N/A% 29.86 in 10.0 mi SW 5.8 mph - N/A   Overcast
12:35 AM - - - N/A% 29.86 in 10.0 mi SSW 4.6 mph - N/A   Overcast
12:55 AM - - - N/A% 29.86 in 10.0 mi SSW 5.8 mph - N/A   Overcast
1:15 AM - - - N/A% 29.86 in 10.0 mi SSW 6.9 mph - N/A   Overcast
1:35 AM - - - N/A% 29.86 in 10.0 mi Calm Calm - N/A   Overcast
1:55 AM - - - N/A% 29.86 in 9.0 mi WSW 4.6 mph - 0.02 in   Overcast
2:15 AM - - - N/A% 29.86 in 8.0 mi Calm Calm - 0.05 in   Overcast
2:35 AM - - - N/A% 29.85 in 10.0 mi Calm Calm - 0.06 in   Overcast
2:55 AM - - - N/A% 29.84 in 5.0 mi Calm Calm - 0.06 in   Overcast
3:15 AM - - - N/A% 29.83 in 5.0 mi Calm Calm - N/A   Overcast
3:35 AM - - - N/A% 29.83 in 10.0 mi SW 3.5 mph - N/A   Mostly Cloudy
3:55 AM - - - N/A% 29.82 in 10.0 mi Calm Calm - N/A   Overcast
4:15 AM 55.4 °F - 51.8 °F 88% 29.83 in 9.0 mi Calm Calm - N/A   Overcast
4:35 AM 53.6 °F - 50.0 °F 88% 29.84 in 5.0 mi Calm Calm - N/A   Overcast
4:55 AM 53.6 °F - 51.8 °F 94% 29.84 in 4.0 mi Calm Calm - N/A   Overcast
5:15 AM 53.6 °F - 51.8 °F 94% 29.83 in 7.0 mi Calm Calm - N/A   Overcast
5:35 AM - - - N/A% 29.83 in 9.0 mi SW 3.5 mph - N/A   Overcast
5:55 AM - - - N/A% 29.83 in 10.0 mi SW 4.6 mph - N/A   Mostly Cloudy
6:15 AM - - - N/A% 29.83 in 10.0 mi WSW 4.6 mph - N/A   Mostly Cloudy
6:35 AM 55.4 °F - 51.8 °F 88% 29.84 in 8.0 mi West 4.6 mph - N/A   Scattered Clouds
6:55 AM - - - N/A% 29.84 in 2.5 mi WSW 5.8 mph - N/A   Mostly Cloudy
7:15 AM - - - N/A% 29.83 in 6.0 mi SW 3.5 mph - N/A   Mostly Cloudy
7:35 AM 55.4 °F - 51.8 °F 88% 29.84 in 7.0 mi WSW 4.6 mph - N/A   Overcast
7:55 AM - - - N/A% 29.84 in 8.0 mi Calm Calm - N/A   Overcast
8:15 AM - - - N/A% 29.84 in 9.0 mi Calm Calm - N/A   Overcast
8:35 AM - - - N/A% 29.84 in 10.0 mi Calm Calm - N/A   Overcast
8:55 AM 57.2 °F - 53.6 °F 88% 29.84 in 10.0 mi Calm Calm - N/A   Overcast
9:15 AM 59.0 °F - 51.8 °F 77% 29.84 in 10.0 mi West 8.1 mph - N/A   Overcast
9:35 AM 57.2 °F - 51.8 °F 82% 29.84 in 10.0 mi WNW 5.8 mph - N/A   Overcast
9:55 AM 57.2 °F - 51.8 °F 82% 29.85 in 10.0 mi WNW 8.1 mph - N/A   Overcast
10:15 AM 57.2 °F - 51.8 °F 82% 29.85 in 7.0 mi WNW 5.8 mph - N/A   Overcast
10:35 AM 57.2 °F - 51.8 °F 82% 29.85 in 7.0 mi West 8.1 mph - N/A   Overcast
10:55 AM 57.2 °F - 51.8 °F 82% 29.85 in 6.0 mi WNW 5.8 mph - N/A   Overcast
11:15 AM 57.2 °F - 51.8 °F 82% 29.84 in 9.0 mi WNW 4.6 mph - N/A   Overcast
11:35 AM 59.0 °F - 51.8 °F 77% 29.84 in 10.0 mi West 5.8 mph - N/A   Overcast
11:55 AM 60.8 °F - 51.8 °F 72% 29.83 in 10.0 mi West 6.9 mph - N/A   Overcast
12:15 PM 60.8 °F - 51.8 °F 72% 29.82 in 10.0 mi NW 8.1 mph - N/A   Mostly Cloudy
12:35 PM 62.6 °F - 51.8 °F 68% 29.81 in 10.0 mi NW 12.7 mph - N/A   Mostly Cloudy
12:55 PM 62.6 °F - 50.0 °F 63% 29.80 in 10.0 mi NNW 8.1 mph - N/A   Mostly Cloudy
1:15 PM 64.4 °F - 48.2 °F 56% 29.80 in 10.0 mi NNW 8.1 mph - N/A   Overcast
1:35 PM 64.4 °F - 46.4 °F 52% 29.80 in 10.0 mi NW 9.2 mph - N/A   Mostly Cloudy
1:55 PM 64.4 °F - 48.2 °F 56% 29.79 in 10.0 mi West 11.5 mph 16.1 mph N/A   Mostly Cloudy
2:15 PM 62.6 °F - 46.4 °F 55% 29.80 in 10.0 mi WNW 9.2 mph 17.3 mph N/A   Mostly Cloudy
2:35 PM - - - N/A% 29.80 in 10.0 mi NNW 16.1 mph - N/A   Overcast
2:55 PM - - - N/A% 29.81 in 10.0 mi NW 18.4 mph 24.2 mph N/A   Overcast
3:15 PM - - - N/A% 29.82 in 10.0 mi NNW 15.0 mph 24.2 mph N/A   Overcast
3:35 PM - - - N/A% 29.83 in 10.0 mi NNW 17.3 mph 24.2 mph N/A   Overcast
3:55 PM - - - N/A% 29.83 in 10.0 mi NNW 17.3 mph 20.7 mph N/A   Scattered Clouds
4:15 PM - - - N/A% 29.84 in 10.0 mi NNW 13.8 mph 25.3 mph N/A   Clear
4:35 PM - - - N/A% 29.85 in 10.0 mi NNW 13.8 mph 20.7 mph N/A   Clear
4:55 PM - - - N/A% 29.86 in 10.0 mi NNW 12.7 mph - N/A   Clear
5:15 PM - - - N/A% 29.86 in 9.0 mi NNW 16.1 mph 21.9 mph N/A   Clear
5:35 PM - - - N/A% 29.87 in 9.0 mi NNW 15.0 mph 24.2 mph N/A   Clear
5:55 PM - - - N/A% 29.88 in 9.0 mi North 16.1 mph 24.2 mph N/A   Clear
6:15 PM - - - N/A% 29.90 in 8.0 mi NNW 15.0 mph 25.3 mph N/A   Clear
6:35 PM - - - N/A% 29.91 in 8.0 mi NNW 16.1 mph 27.6 mph N/A   Clear
6:55 PM - - - N/A% 29.92 in 10.0 mi NNW 18.4 mph 23.0 mph N/A   Clear
7:15 PM - - - N/A% 29.92 in 9.0 mi NNW 11.5 mph 23.0 mph N/A   Partly Cloudy
7:35 PM - - - N/A% 29.93 in 9.0 mi NNW 15.0 mph 21.9 mph N/A   Partly Cloudy
7:55 PM - - - N/A% 29.94 in 10.0 mi North 18.4 mph 24.2 mph N/A   Mostly Cloudy
8:15 PM - - - N/A% 29.95 in 9.0 mi North 13.8 mph 23.0 mph N/A   Overcast
8:35 PM - - - N/A% 29.96 in 9.0 mi North 19.6 mph 25.3 mph N/A   Overcast
8:55 PM - - - N/A% 29.97 in 9.0 mi NNW 18.4 mph 25.3 mph N/A   Overcast
9:15 PM - - - N/A% 29.97 in 10.0 mi North 13.8 mph 20.7 mph N/A   Overcast
9:35 PM - - - N/A% 29.98 in 10.0 mi North 15.0 mph 19.6 mph N/A   Overcast
9:55 PM - - - N/A% 29.98 in 10.0 mi North 11.5 mph 19.6 mph N/A   Overcast
10:15 PM - - - N/A% 29.98 in 10.0 mi North 15.0 mph - N/A   Overcast
10:35 PM - - - N/A% 29.98 in 10.0 mi North 15.0 mph 21.9 mph N/A   Overcast
10:55 PM - - - N/A% 29.98 in 10.0 mi North 13.8 mph - N/A   Overcast
11:15 PM 39.2 °F 32.0 °F 30.2 °F 70% 29.98 in 10.0 mi North 11.5 mph - N/A   Overcast
11:35 PM - - - N/A% 29.98 in 10.0 mi North 10.4 mph - N/A   Overcast
11:55 PM - - - N/A% 29.97 in 10.0 mi North 9.2 mph - N/A   Overcast